Total_Precipitation_Accumulation
0.84 0.80 0.81 0.82 0.82 0.85 0.81 0.73 0.60 0.48 0.40 0.37 0.31 0.31 0.33 0.33 0.37 0.42 0.50 0.47 0.41 0.54 0.74 0.84 0.82 0.80 0.76 0.69 0.64 0.61 0.58 0.57 0.54 0.47 0.38 0.33 0.31 0.30 0.30 0.29 0.29 0.30 0.31
1.13 1.06 1.08 1.09 1.01 1.04 1.06 0.98 0.80 0.70 0.58 0.55 0.51 0.50 0.50 0.46 0.46 0.50 0.60 0.57 0.51 0.55 0.76 0.93 1.01 1.01 0.97 0.91 0.84 0.73 0.69 0.67 0.65 0.58 0.52 0.45 0.39 0.36 0.36 0.34 0.31 0.29 0.28
1.46 1.38 1.39 1.40 1.23 1.20 1.27 1.28 1.09 0.96 0.85 0.74 0.76 0.72 0.67 0.69 0.68 0.69 0.76 0.79 0.77 0.74 0.83 0.85 0.90 0.95 0.96 0.96 0.95 0.88 0.83 0.75 0.70 0.69 0.65 0.58 0.50 0.44 0.40 0.37 0.36 0.34 0.31
1.69 1.73 1.68 1.57 1.50 1.48 1.56 1.66 1.46 1.30 1.21 1.10 1.07 0.94 0.85 0.82 0.76 0.82 0.85 0.86 0.99 0.98 0.91 0.80 0.79 0.83 0.87 0.93 0.95 0.92 0.89 0.83 0.77 0.72 0.69 0.68 0.64 0.53 0.46 0.42 0.41 0.40 0.36
2.02 2.08 2.07 2.01 1.92 1.89 1.90 1.82 1.80 1.61 1.61 1.51 1.27 1.12 1.01 0.95 0.94 0.92 0.92 0.94 0.95 1.00 0.98 0.84 0.75 0.72 0.70 0.73 0.79 0.87 0.90 0.87 0.81 0.76 0.74 0.75 0.73 0.65 0.55 0.51 0.48 0.44 0.42
2.52 2.52 2.45 2.46 2.44 2.44 2.27 2.15 2.04 1.83 1.71 1.62 1.40 1.26 1.17 1.09 0.99 0.91 0.84 0.82 0.80 0.75 0.76 0.79 0.78 0.66 0.58 0.60 0.65 0.72 0.79 0.86 0.91 0.87 0.82 0.84 0.83 0.74 0.65 0.59 0.56 0.53 0.50
3.10 3.06 3.00 2.88 2.71 2.62 2.46 2.26 2.07 1.90 1.74 1.55 1.50 1.31 1.09 0.96 0.86 0.76 0.71 0.68 0.64 0.59 0.57 0.61 0.68 0.67 0.60 0.53 0.52 0.58 0.69 0.81 0.88 0.85 0.79 0.82 0.83 0.79 0.73 0.67 0.63 0.59 0.58
3.79 3.62 3.46 3.17 2.81 2.63 2.51 2.31 2.07 1.89 1.68 1.51 1.46 1.39 1.15 0.96 0.77 0.64 0.60 0.57 0.54 0.52 0.48 0.45 0.50 0.53 0.50 0.44 0.42 0.49 0.55 0.55 0.56 0.62 0.72 0.79 0.78 0.77 0.77 0.76 0.75 0.72 0.70
3.92 3.64 3.31 3.04 2.76 2.57 2.41 2.30 2.11 1.95 1.71 1.49 1.35 1.38 1.31 1.13 0.86 0.72 0.59 0.51 0.48 0.46 0.42 0.36 0.35 0.34 0.34 0.35 0.36 0.41 0.50 0.53 0.49 0.49 0.58 0.69 0.70 0.70 0.73 0.76 0.79 0.82 0.85
3.60 3.17 2.92 2.85 2.60 2.36 2.20 2.02 1.83 1.70 1.59 1.44 1.32 1.21 1.10 0.99 0.90 0.83 0.73 0.63 0.56 0.53 0.49 0.44 0.38 0.32 0.31 0.31 0.31 0.31 0.34 0.37 0.35 0.34 0.39 0.45 0.50 0.53 0.57 0.64 0.73 0.80 0.86
3.06 2.80 2.58 2.56 2.43 2.14 1.88 1.63 1.43 1.33 1.29 1.24 1.17 1.10 1.01 0.88 0.77 0.72 0.73 0.69 0.65 0.59 0.52 0.49 0.45 0.40 0.35 0.33 0.31 0.31 0.33 0.32 0.33 0.32 0.32 0.35 0.39 0.45 0.50 0.56 0.66 0.76 0.84
2.51 2.28 2.03 1.87 1.74 1.53 1.37 1.24 1.11 1.05 1.03 1.02 0.97 0.92 0.89 0.85 0.79 0.72 0.69 0.65 0.66 0.69 0.60 0.50 0.42 0.35 0.31 0.29 0.29 0.32 0.30 0.30 0.30 0.28 0.25 0.23 0.25 0.29 0.36 0.45 0.54 0.63 0.74
1.88 1.65 1.45 1.32 1.23 1.11 1.00 0.96 0.94 0.90 0.82 0.76 0.72 0.72 0.72 0.67 0.65 0.67 0.73 0.76 0.73 0.70 0.64 0.56 0.43 0.32 0.27 0.24 0.26 0.29 0.30 0.25 0.23 0.22 0.20 0.19 0.18 0.17 0.19 0.24 0.31 0.41 0.52
1.33 1.22 1.07 0.96 0.92 0.89 0.82 0.75 0.70 0.67 0.61 0.56 0.52 0.52 0.53 0.52 0.54 0.62 0.69 0.76 0.80 0.73 0.59 0.51 0.42 0.32 0.26 0.25 0.32 0.34 0.32 0.22 0.17 0.15 0.13 0.12 0.12 0.11 0.13 0.14 0.16 0.19 0.25
0.87 0.80 0.73 0.69 0.65 0.61 0.57 0.49 0.42 0.43 0.48 0.48 0.46 0.45 0.45 0.46 0.47 0.52 0.56 0.62 0.68 0.70 0.59 0.45 0.39 0.33 0.28 0.33 0.47 0.44 0.38 0.29 0.21 0.15 0.12 0.10 0.09 0.09 0.09 0.10 0.10 0.11 0.14
0.54 0.50 0.45 0.44 0.42 0.42 0.42 0.39 0.36 0.34 0.36 0.40 0.40 0.39 0.39 0.39 0.40 0.42 0.46 0.48 0.52 0.59 0.57 0.40 0.30 0.27 0.27 0.30 0.45 0.44 0.45 0.39 0.28 0.18 0.13 0.10 0.09 0.09 0.09 0.10 0.11 0.13 0.15
0.39 0.37 0.37 0.35 0.34 0.36 0.37 0.39 0.40 0.38 0.36 0.35 0.34 0.34 0.33 0.33 0.35 0.34 0.37 0.40 0.42 0.48 0.54 0.43 0.32 0.27 0.29 0.33 0.38 0.38 0.37 0.35 0.30 0.27 0.19 0.15 0.13 0.11 0.11 0.12 0.14 0.17 0.21
0.36 0.36 0.37 0.35 0.32 0.31 0.32 0.34 0.34 0.34 0.34 0.31 0.28 0.27 0.28 0.28 0.30 0.31 0.33 0.35 0.39 0.45 0.53 0.50 0.36 0.27 0.26 0.28 0.31 0.32 0.28 0.26 0.27 0.30 0.23 0.16 0.14 0.13 0.18 0.15 0.13 0.16 0.22
0.32 0.30 0.30 0.29 0.30 0.30 0.30 0.29 0.28 0.28 0.27 0.27 0.25 0.25 0.27 0.28 0.27 0.27 0.30 0.33 0.37 0.41 0.49 0.52 0.40 0.30 0.27 0.31 0.41 0.39 0.32 0.40 0.32 0.27 0.22 0.18 0.16 0.17 0.40 0.46 0.22 0.18 0.21
0.28 0.25 0.23 0.21 0.20 0.21 0.21 0.19 0.17 0.17 0.17 0.16 0.17 0.20 0.23 0.25 0.26 0.30 0.31 0.35 0.39 0.43 0.45 0.47 0.39 0.31 0.32 0.35 0.47 0.53 0.49 0.45 0.39 0.24 0.27 0.24 0.23 0.28 0.65 1.20 0.67 0.35 0.29
0.23 0.22 0.20 0.17 0.14 0.14 0.12 0.11 0.11 0.11 0.13 0.13 0.14 0.17 0.18 0.19 0.23 0.25 0.27 0.33 0.41 0.47 0.49 0.52 0.46 0.41 0.38 0.47 0.54 0.56 0.53 0.50 0.42 0.33 0.39 0.35 0.50 0.84 1.37 2.00 1.54 0.88 0.63
0.23 0.19 0.14 0.13 0.11 0.09 0.09 0.08 0.08 0.10 0.11 0.13 0.16 0.16 0.13 0.12 0.12 0.13 0.17 0.24 0.35 0.45 0.53 0.60 0.58 0.55 0.49 0.54 0.63 0.64 0.63 0.61 0.51 0.36 0.40 0.42 0.70 1.45 2.16 2.54 2.11 1.31 0.98
0.21 0.18 0.12 0.10 0.11 0.08 0.04 0.04 0.04 0.07 0.13 0.19 0.21 0.19 0.15 0.11 0.15 0.20 0.19 0.20 0.28 0.35 0.49 0.65 0.70 0.63 0.60 0.63 0.73 0.77 0.72 0.72 0.68 0.50 0.51 0.55 0.87 1.73 2.08 2.30 2.11 1.44 1.14
0.20 0.18 0.14 0.11 0.12 0.08 0.03 0.03 0.03 0.07 0.13 0.15 0.15 0.17 0.22 0.25 0.19 0.16 0.17 0.28 0.39 0.47 0.51 0.56 0.66 0.62 0.59 0.60 0.67 0.71 0.69 0.70 0.63 0.56 0.58 0.70 0.99 1.61 1.73 1.87 1.94 1.50 1.23
0.20 0.17 0.14 0.13 0.14 0.10 0.02 0.01 0.02 0.07 0.11 0.11 0.11 0.12 0.15 0.21 0.15 0.14 0.23 0.41 0.50 0.61 0.63 0.75 0.75 0.69 0.69 0.68 0.59 0.57 0.71 0.82 0.76 0.57 0.54 0.69 0.94 1.28 1.41 1.55 1.57 1.46 1.34
0.20 0.16 0.14 0.14 0.14 0.12 0.03 0.01 0.02 0.07 0.11 0.12 0.15 0.19 0.15 0.11 0.12 0.17 0.27 0.47 0.63 0.70 0.84 1.03 0.99 0.92 0.86 0.81 0.68 0.63 0.82 0.96 0.93 0.75 0.59 0.65 0.83 1.01 1.24 1.32 1.27 1.24 1.32